Weather in Leushi

Russia / Khanty-Mansi Autonomous Okrug — Yugra     59°37′24″N   65°45′05″E
temp.,
°C
wind,
m/s
gust,
m/s
humid.,
%
clouds,
%
prec.,
mm/h
press.,
hPa
HPBL,
m
25 january, tue
tue2523:00−8wsw379596 0.8 1027277
02:00−13sw279981 0.0 1026128
05:00−13ssw2796100 0.0 1024144
08:00−13ssw269780 0.1 1022150
11:00−12ssw259657 0.1 1021136
14:00−8sw1391100 0.0 1020311
17:00−8s1397100 0.3 1020118
20:00−7ssw2596100 0.5 1020190
26 january, wed
wed2623:00−7sw269692 1.2 1020258
02:00−11sw259771 0.1 1020104
05:00−16sw269770 0.1 102189
08:00−16sw2597100 0.0 102173
11:00−12sw269393 0.0 1022132
14:00−8sw368828 0.0 1022220
17:00−12ssw3895100 0.0 1023119
20:00−13ssw3109392 0.0 1023159
27 january, thu
thu2723:00−14ssw399299 0.0 1023156
02:00−14ssw399399 0.0 1023142
05:00−14s3895100 0.0 1023143
08:00−15s3990100 0.0 1022154
11:00−13s31191100 0.0 1021261
14:00−10s41182100 0.0 1019370
17:00−11s4119191 0.0 1019426
20:00−10ssw41293100 0.1 1019425
28 january, fri
fri2823:00−11ssw4119593 0.1 1019292
02:00−12ssw3109688 0.0 1019251
05:00−12ssw31094100 0.0 1020293
08:00−12ssw3994100 0.0 1020242
11:00−12sw3993100 0.0 1021260
14:00−10sw38895 0.0 1022338
17:00−13ssw279638 0.0 1022100
20:00−14ssw289752 0.0 1023133
29 january, sat
sat2923:00−16ssw269751 0.0 102489
02:00−17ssw259860 0.0 102473
05:00−16s2598100 0.0 102482
08:00−15s2497100 0.0 102473
11:00−11sse2495100 0.0 1023130
14:00−7se2492100 0.1 1022254
17:00−9ese2597100 0.1 1021147
20:00−10se2795100 0.0 1019189